Time,TemperatureF,DewpointF,PressureIn,WindDirection,WindDirectionDegrees,WindSpeedMPH,WindSpeedGustMPH,Humidity,HourlyPrecipIn,Conditions,Clouds,dailyrainin,SolarRadiationWatts/m^2,SoftwareType,DateUTC
2013-03-03 00:02:00,35.0,34.0,-100.00,NNE,17,2.0,6.0,96,0.00,,,0.17,0.000000,,2013-03-03 05:02:00,
2013-03-03 00:12:00,35.0,34.0,-100.00,NNE,17,2.0,6.0,96,0.00,,,0.17,0.000000,,2013-03-03 05:12:00,
2013-03-03 00:22:00,35.0,34.0,-100.00,NNE,17,2.0,6.0,96,0.00,,,0.17,0.000000,,2013-03-03 05:22:00,
2013-03-03 00:32:00,35.0,34.0,-100.00,NNE,17,2.0,6.0,96,0.00,,,0.17,0.000000,,2013-03-03 05:32:00,
2013-03-03 01:02:00,35.0,34.0,-100.00,NNE,28,1.0,7.0,96,0.00,,,0.17,0.000000,,2013-03-03 06:02:00,
2013-03-03 01:11:00,35.0,34.0,-100.00,NNE,28,1.0,7.0,96,0.00,,,0.17,0.000000,,2013-03-03 06:11:00,
2013-03-03 01:22:00,35.0,34.0,-100.00,NNE,28,1.0,7.0,96,0.00,,,0.17,0.000000,,2013-03-03 06:22:00,
2013-03-03 01:32:00,35.0,34.0,-100.00,NNE,28,1.0,7.0,96,0.00,,,0.17,0.000000,,2013-03-03 06:32:00,
2013-03-03 01:52:00,35.0,34.0,-100.00,NNE,18,1.0,5.0,96,0.01,,,0.18,0.000000,,2013-03-03 06:52:00,
2013-03-03 02:01:00,35.0,34.0,-100.00,NNE,18,1.0,5.0,96,0.01,,,0.18,0.000000,,2013-03-03 07:01:00,
2013-03-03 02:11:00,35.0,34.0,-100.00,NNE,18,1.0,5.0,96,0.01,,,0.18,0.000000,,2013-03-03 07:11:00,
2013-03-03 02:21:00,35.0,34.0,-100.00,NNE,18,1.0,5.0,96,0.01,,,0.18,0.000000,,2013-03-03 07:21:00,
2013-03-03 02:32:00,35.0,34.0,-100.00,NNE,18,1.0,5.0,96,0.01,,,0.18,0.000000,,2013-03-03 07:32:00,
2013-03-03 02:52:00,34.0,33.0,-100.00,NNE,29,2.0,5.0,96,0.00,,,0.18,0.000000,,2013-03-03 07:52:00,
2013-03-03 03:01:00,34.0,33.0,-100.00,NNE,29,2.0,5.0,96,0.00,,,0.18,0.000000,,2013-03-03 08:01:00,
2013-03-03 03:11:00,34.0,33.0,-100.00,NNE,29,2.0,5.0,96,0.00,,,0.18,0.000000,,2013-03-03 08:11:00,
2013-03-03 03:21:00,34.0,33.0,-100.00,NNE,29,2.0,5.0,96,0.00,,,0.18,0.000000,,2013-03-03 08:21:00,
2013-03-03 03:32:00,34.0,33.0,-100.00,NNE,29,2.0,5.0,96,0.00,,,0.18,0.000000,,2013-03-03 08:32:00,
2013-03-03 03:54:00,34.0,33.0,-100.00,NNE,25,2.0,6.0,96,0.00,,,0.18,0.000000,,2013-03-03 08:54:00,
2013-03-03 04:02:00,34.0,33.0,-100.00,NNE,25,2.0,6.0,96,0.00,,,0.18,0.000000,,2013-03-03 09:02:00,
2013-03-03 04:12:00,34.0,33.0,-100.00,NNE,25,2.0,6.0,96,0.00,,,0.18,0.000000,,2013-03-03 09:12:00,
2013-03-03 04:21:00,34.0,33.0,-100.00,NNE,25,2.0,6.0,96,0.00,,,0.18,0.000000,,2013-03-03 09:21:00,
2013-03-03 04:32:00,34.0,33.0,-100.00,NNE,25,2.0,6.0,96,0.00,,,0.18,0.000000,,2013-03-03 09:32:00,
2013-03-03 04:52:00,34.0,33.0,-100.00,North,6,1.0,5.0,96,0.00,,,0.18,0.000000,,2013-03-03 09:52:00,
2013-03-03 05:01:00,34.0,33.0,-100.00,North,6,1.0,5.0,96,0.00,,,0.18,0.000000,,2013-03-03 10:01:00,
2013-03-03 05:12:00,34.0,33.0,-100.00,North,6,1.0,5.0,96,0.00,,,0.18,0.000000,,2013-03-03 10:12:00,
2013-03-03 05:22:00,34.0,33.0,-100.00,North,6,1.0,5.0,96,0.00,,,0.18,0.000000,,2013-03-03 10:22:00,
2013-03-03 05:32:00,34.0,33.0,-100.00,North,6,1.0,5.0,96,0.00,,,0.18,0.000000,,2013-03-03 10:32:00,
2013-03-03 05:52:00,33.0,32.0,-100.00,East,92,1.0,3.0,96,0.00,,,0.18,0.000000,,2013-03-03 10:52:00,
2013-03-03 06:02:00,33.0,32.0,-100.00,East,92,1.0,3.0,96,0.00,,,0.18,0.000000,,2013-03-03 11:02:00,
2013-03-03 06:11:00,33.0,32.0,-100.00,East,92,1.0,3.0,96,0.00,,,0.18,0.000000,,2013-03-03 11:11:00,
2013-03-03 06:22:00,33.0,32.0,-100.00,East,92,1.0,3.0,96,0.00,,,0.18,0.000000,,2013-03-03 11:22:00,
2013-03-03 06:32:00,33.0,32.0,-100.00,East,92,1.0,3.0,96,0.00,,,0.18,0.000000,,2013-03-03 11:32:00,
2013-03-03 06:53:00,34.0,33.0,-100.00,NE,35,1.0,5.0,96,0.00,,,0.18,6.000000,,2013-03-03 11:53:00,
2013-03-03 07:02:00,34.0,33.0,-100.00,NE,35,1.0,5.0,96,0.00,,,0.18,6.000000,,2013-03-03 12:02:00,
2013-03-03 07:11:00,34.0,33.0,-100.00,NE,35,1.0,5.0,96,0.00,,,0.18,6.000000,,2013-03-03 12:11:00,
2013-03-03 07:22:00,34.0,33.0,-100.00,NE,35,1.0,5.0,96,0.00,,,0.18,6.000000,,2013-03-03 12:22:00,
2013-03-03 07:32:00,34.0,33.0,-100.00,NE,35,1.0,5.0,96,0.00,,,0.18,6.000000,,2013-03-03 12:32:00,
2013-03-03 08:02:00,35.0,34.0,-100.00,North,2,2.0,6.0,96,0.00,,,0.18,52.000000,,2013-03-03 13:02:00,
2013-03-03 08:11:00,35.0,34.0,-100.00,North,2,2.0,6.0,96,0.00,,,0.18,52.000000,,2013-03-03 13:11:00,
2013-03-03 08:22:00,35.0,34.0,-100.00,North,2,2.0,6.0,96,0.00,,,0.18,52.000000,,2013-03-03 13:22:00,
2013-03-03 08:32:00,35.0,34.0,-100.00,North,2,2.0,6.0,96,0.00,,,0.18,52.000000,,2013-03-03 13:32:00,
2013-03-03 09:02:00,37.0,35.0,-100.00,NNE,20,2.0,5.0,93,0.00,,,0.18,110.000000,,2013-03-03 14:02:00,
2013-03-03 09:11:00,37.0,35.0,-100.00,NNE,20,2.0,5.0,93,0.00,,,0.18,110.000000,,2013-03-03 14:11:00,
2013-03-03 09:22:00,37.0,35.0,-100.00,NNE,20,2.0,5.0,93,0.00,,,0.18,110.000000,,2013-03-03 14:22:00,
2013-03-03 09:32:00,37.0,35.0,-100.00,NNE,20,2.0,5.0,93,0.00,,,0.18,110.000000,,2013-03-03 14:32:00,
2013-03-03 10:02:00,39.0,36.0,-100.00,North,349,2.0,5.0,90,0.00,,,0.12,176.000000,,2013-03-03 15:02:00,
2013-03-03 10:11:00,39.0,36.0,-100.00,North,349,2.0,5.0,90,0.00,,,0.12,176.000000,,2013-03-03 15:11:00,
2013-03-03 10:22:00,39.0,36.0,-100.00,North,349,2.0,5.0,90,0.00,,,0.12,176.000000,,2013-03-03 15:22:00,
2013-03-03 10:32:00,39.0,36.0,-100.00,North,349,2.0,5.0,90,0.00,,,0.12,176.000000,,2013-03-03 15:32:00,
2013-03-03 10:52:00,39.0,35.0,-100.00,NNW,332,3.0,7.0,87,0.00,,,0.08,220.000000,,2013-03-03 15:52:00,
2013-03-03 11:02:00,39.0,35.0,-100.00,NNW,332,3.0,7.0,87,0.00,,,0.08,220.000000,,2013-03-03 16:02:00,
2013-03-03 11:12:00,39.0,35.0,-100.00,NNW,332,3.0,7.0,87,0.00,,,0.08,220.000000,,2013-03-03 16:12:00,
2013-03-03 11:22:00,39.0,35.0,-100.00,NNW,332,3.0,7.0,87,0.00,,,0.08,220.000000,,2013-03-03 16:22:00,
2013-03-03 11:32:00,39.0,35.0,-100.00,NNW,332,3.0,7.0,87,0.00,,,0.08,220.000000,,2013-03-03 16:32:00,
2013-03-03 11:52:00,40.0,35.0,-100.00,NNW,332,4.0,6.0,83,0.00,,,0.08,278.000000,,2013-03-03 16:52:00,
2013-03-03 12:01:00,40.0,35.0,-100.00,NNW,332,4.0,6.0,83,0.00,,,0.08,278.000000,,2013-03-03 17:01:00,
2013-03-03 12:12:00,40.0,35.0,-100.00,NNW,332,4.0,6.0,83,0.00,,,0.08,278.000000,,2013-03-03 17:12:00,
2013-03-03 12:22:00,40.0,35.0,-100.00,NNW,332,4.0,6.0,83,0.00,,,0.08,278.000000,,2013-03-03 17:22:00,
2013-03-03 12:32:00,40.0,35.0,-100.00,NNW,332,4.0,6.0,83,0.00,,,0.08,278.000000,,2013-03-03 17:32:00,
2013-03-03 12:52:00,42.0,36.0,-100.00,NNW,330,3.0,8.0,80,0.00,,,0.08,327.000000,,2013-03-03 17:52:00,
2013-03-03 13:02:00,42.0,36.0,-100.00,NNW,330,3.0,8.0,80,0.00,,,0.08,327.000000,,2013-03-03 18:02:00,
2013-03-03 13:11:00,42.0,36.0,-100.00,NNW,330,3.0,8.0,80,0.00,,,0.08,327.000000,,2013-03-03 18:11:00,
2013-03-03 13:22:00,42.0,36.0,-100.00,NNW,330,3.0,8.0,80,0.00,,,0.08,327.000000,,2013-03-03 18:22:00,
2013-03-03 13:32:00,42.0,36.0,-100.00,NNW,330,3.0,8.0,80,0.00,,,0.08,327.000000,,2013-03-03 18:32:00,
2013-03-03 13:53:00,45.0,37.0,-100.00,NNW,330,4.0,7.0,73,0.00,,,0.08,545.000000,,2013-03-03 18:53:00,
2013-03-03 14:02:00,45.0,37.0,-100.00,NNW,330,4.0,7.0,73,0.00,,,0.08,545.000000,,2013-03-03 19:02:00,
2013-03-03 14:11:00,45.0,37.0,-100.00,NNW,330,4.0,7.0,73,0.00,,,0.08,545.000000,,2013-03-03 19:11:00,
2013-03-03 14:22:00,45.0,37.0,-100.00,NNW,330,4.0,7.0,73,0.00,,,0.08,545.000000,,2013-03-03 19:22:00,
2013-03-03 14:32:00,45.0,37.0,-100.00,NNW,330,4.0,7.0,73,0.00,,,0.08,545.000000,,2013-03-03 19:32:00,
2013-03-03 15:02:00,44.0,36.0,-100.00,NNW,327,3.0,8.0,73,0.00,,,0.08,480.000000,,2013-03-03 20:02:00,
2013-03-03 15:11:00,44.0,36.0,-100.00,NNW,327,3.0,8.0,73,0.00,,,0.08,480.000000,,2013-03-03 20:11:00,
2013-03-03 15:22:00,44.0,36.0,-100.00,NNW,327,3.0,8.0,73,0.00,,,0.08,480.000000,,2013-03-03 20:22:00,
2013-03-03 15:32:00,44.0,36.0,-100.00,NNW,327,3.0,8.0,73,0.00,,,0.08,480.000000,,2013-03-03 20:32:00,
2013-03-03 15:53:00,41.0,35.0,-100.00,NW,315,2.0,7.0,79,0.00,,,0.08,197.000000,,2013-03-03 20:53:00,
2013-03-03 16:02:00,41.0,35.0,-100.00,NW,315,2.0,7.0,79,0.00,,,0.08,197.000000,,2013-03-03 21:02:00,
2013-03-03 16:12:00,41.0,35.0,-100.00,NW,315,2.0,7.0,79,0.00,,,0.08,197.000000,,2013-03-03 21:12:00,
2013-03-03 16:22:00,41.0,35.0,-100.00,NW,315,2.0,7.0,79,0.00,,,0.08,197.000000,,2013-03-03 21:22:00,
2013-03-03 16:32:00,41.0,35.0,-100.00,NW,315,2.0,7.0,79,0.00,,,0.08,197.000000,,2013-03-03 21:32:00,
2013-03-03 16:52:00,39.0,35.0,-100.00,SSW,211,1.0,6.0,85,0.00,,,0.07,64.000000,,2013-03-03 21:52:00,
2013-03-03 17:02:00,39.0,35.0,-100.00,SSW,211,1.0,6.0,85,0.00,,,0.07,64.000000,,2013-03-03 22:02:00,
2013-03-03 17:11:00,39.0,35.0,-100.00,SSW,211,1.0,6.0,85,0.00,,,0.07,64.000000,,2013-03-03 22:11:00,
2013-03-03 17:22:00,39.0,35.0,-100.00,SSW,211,1.0,6.0,85,0.00,,,0.07,64.000000,,2013-03-03 22:22:00,
2013-03-03 17:32:00,39.0,35.0,-100.00,SSW,211,1.0,6.0,85,0.00,,,0.07,64.000000,,2013-03-03 22:32:00,
2013-03-03 18:02:00,36.0,33.0,-100.00,SW,226,2.0,3.0,90,0.00,,,0.06,10.000000,,2013-03-03 23:02:00,
2013-03-03 18:11:00,36.0,33.0,-100.00,SW,226,2.0,3.0,90,0.00,,,0.06,10.000000,,2013-03-03 23:11:00,
2013-03-03 18:22:00,36.0,33.0,-100.00,SW,226,2.0,3.0,90,0.00,,,0.06,10.000000,,2013-03-03 23:22:00,
2013-03-03 18:32:00,36.0,33.0,-100.00,SW,226,2.0,3.0,90,0.00,,,0.06,10.000000,,2013-03-03 23:32:00,
2013-03-03 18:52:00,35.0,33.0,-100.00,SSW,208,2.0,4.0,91,0.00,,,0.06,0.000000,,2013-03-03 23:52:00,
2013-03-03 19:02:00,35.0,33.0,-100.00,SSW,208,2.0,4.0,91,0.00,,,0.06,0.000000,,2013-03-04 00:02:00,
2013-03-03 19:11:00,35.0,33.0,-100.00,SSW,208,2.0,4.0,91,0.00,,,0.06,0.000000,,2013-03-04 00:11:00,
2013-03-03 19:22:00,35.0,33.0,-100.00,SSW,208,2.0,4.0,91,0.00,,,0.06,0.000000,,2013-03-04 00:22:00,
2013-03-03 19:32:00,35.0,33.0,-100.00,SSW,208,2.0,4.0,91,0.00,,,0.06,0.000000,,2013-03-04 00:32:00,
2013-03-03 20:02:00,34.0,33.0,-100.00,South,188,2.0,4.0,95,0.00,,,0.04,0.000000,,2013-03-04 01:02:00,
2013-03-03 20:12:00,34.0,33.0,-100.00,South,188,2.0,4.0,95,0.00,,,0.04,0.000000,,2013-03-04 01:12:00,
2013-03-03 20:22:00,34.0,33.0,-100.00,South,188,2.0,4.0,95,0.00,,,0.04,0.000000,,2013-03-04 01:22:00,
2013-03-03 20:32:00,34.0,33.0,-100.00,South,188,2.0,4.0,95,0.00,,,0.04,0.000000,,2013-03-04 01:32:00,
2013-03-03 20:52:00,37.0,34.0,-100.00,NNW,330,4.0,8.0,88,0.00,,,0.03,0.000000,,2013-03-04 01:52:00,
2013-03-03 21:01:00,37.0,34.0,-100.00,NNW,330,4.0,8.0,88,0.00,,,0.03,0.000000,,2013-03-04 02:01:00,
2013-03-03 21:11:00,37.0,34.0,-100.00,NNW,330,4.0,8.0,88,0.00,,,0.03,0.000000,,2013-03-04 02:11:00,
2013-03-03 21:22:00,37.0,34.0,-100.00,NNW,330,4.0,8.0,88,0.00,,,0.03,0.000000,,2013-03-04 02:22:00,
2013-03-03 21:32:00,37.0,34.0,-100.00,NNW,330,4.0,8.0,88,0.00,,,0.03,0.000000,,2013-03-04 02:32:00,
2013-03-03 21:53:00,36.0,32.0,-100.00,NNW,334,3.0,8.0,86,0.00,,,0.02,0.000000,,2013-03-04 02:53:00,
2013-03-03 22:02:00,36.0,32.0,-100.00,NNW,334,3.0,8.0,86,0.00,,,0.02,0.000000,,2013-03-04 03:02:00,
2013-03-03 22:11:00,36.0,32.0,-100.00,NNW,334,3.0,8.0,86,0.00,,,0.02,0.000000,,2013-03-04 03:11:00,
2013-03-03 22:22:00,36.0,32.0,-100.00,NNW,334,3.0,8.0,86,0.00,,,0.02,0.000000,,2013-03-04 03:22:00,
2013-03-03 22:32:00,36.0,32.0,-100.00,NNW,334,3.0,8.0,86,0.00,,,0.02,0.000000,,2013-03-04 03:32:00,
2013-03-03 22:53:00,36.0,31.0,-100.00,NNW,338,4.0,10.0,82,0.00,,,0.01,0.000000,,2013-03-04 03:53:00,
2013-03-03 23:02:00,36.0,31.0,-100.00,NNW,338,4.0,10.0,82,0.00,,,0.01,0.000000,,2013-03-04 04:02:00,
2013-03-03 23:11:00,36.0,31.0,-100.00,NNW,338,4.0,10.0,82,0.00,,,0.01,0.000000,,2013-03-04 04:11:00,
2013-03-03 23:22:00,36.0,31.0,-100.00,NNW,338,4.0,10.0,82,0.00,,,0.01,0.000000,,2013-03-04 04:22:00,
2013-03-03 23:32:00,36.0,31.0,-100.00,NNW,338,4.0,10.0,82,0.00,,,0.01,0.000000,,2013-03-04 04:32:00,
2013-03-03 23:52:00,36.0,31.0,-100.00,NNW,339,4.0,11.0,81,0.00,,,0.01,0.000000,,2013-03-04 04:52:00,